[[{"header":{"parameterUnit":"m.s-1","parameterCategory":1,"la1":30.2991,"la2":30.254,"lo1":-89.0895,"lo2":-89.0444,"dy":0.0017,"dx":0.0017,"nx":28,"ny":28,"refTime":"2024-06-27T03:00:00:Z","depth":0,"parameterNumber":2,"parameterNumberName":"U-component_of_WINDS"},"data":[0,0,0,0,0,0,0,0,0,0,0,0,0,0,0,0,0,0,0,0,0,0,0,0,0,0,0,0,0,0,0,0,0,0,0,0,0,0,0,0,0,0,0,0,0,0,0,0,0,0,0,0,0,0,0,0,0,0,7.2111,7.2112,0,7.2228,7.2229,7.2231,7.2099,7.2094,7.2089,7.2084,7.2205,7.2212,7.222,0,0,0,0,0,0,0,0,0,0,0,0,0,7.177,7.1777,7.2111,7.2112,7.2114,7.2228,7.2229,7.2231,7.21,7.2094,7.2088,7.2082,7.2202,7.2211,7.2221,0,0,0,0,0,0,0,0,0,0,0,0,0,7.1906,7.1779,7.211,7.2062,7.2059,7.2228,7.223,7.2231,7.2101,7.2094,7.2086,7.2079,7.2199,7.2211,7.2222,7.2444,0,0,7.2258,7.2263,0,0,0,0,0,0,0,0,7.1898,7.1918,7.2068,7.2066,7.2062,7.2141,7.2153,7.2303,7.2103,7.2085,7.2084,7.2076,7.219,7.2202,7.224,7.245,7.2455,7.2259,7.2266,7.2271,7.2275,0,0,0,0,0,0,0,7.1889,7.1913,7.2157,7.207,7.2067,7.2033,7.2044,7.2181,7.2178,7.2086,7.2077,7.2093,7.2187,7.2229,7.2242,7.2457,7.2259,7.2269,7.2277,7.2281,7.2851,7.2858,0,0,0,0,0,0,7.1885,7.1906,7.2153,7.216,7.196,7.2046,7.2058,7.2123,7.2176,7.2177,7.2099,7.2086,7.2213,7.2228,7.2246,7.2507,7.2271,7.2282,7.2289,7.2843,7.2852,7.2861,0,0,0,0,0,0,7.1879,7.1909,7.2148,7.2031,7.2059,7.2059,7.2134,7.213,7.2172,7.2186,7.2184,7.2143,7.2207,7.2229,7.2395,7.2509,7.2288,7.2298,7.2833,7.2846,7.2857,7.3032,0,0,0,0,0,0,7.1869,7.1907,7.1993,7.2034,7.2065,7.2297,7.2141,7.2137,7.2193,7.2177,7.2227,7.2228,7.2203,7.2378,7.2407,7.2521,7.2308,7.2823,7.2839,7.2853,7.3016,7.3049,7.3077,0,0,0,0,0,7.1858,7.2038,7.1998,7.2028,7.2172,7.2304,7.2322,7.2291,7.2202,7.2287,7.2295,7.2226,7.2492,7.2396,7.2427,7.2547,7.2815,7.2834,7.2852,7.3003,7.3042,7.3076,0,0,0,0,0,0,7.2012,7.2043,7.1998,7.2198,7.2249,7.2282,7.2388,7.2334,7.2412,7.2394,7.2351,7.2364,7.2539,7.256,7.2453,7.2763,7.2639,7.2664,7.2743,7.2781,7.2811,7.2802,7.2317,0,0,0,0,0,7.2069,7.2174,7.2195,7.2369,7.2397,7.2389,7.2445,7.2416,7.2467,7.2489,7.2509,7.2562,7.2656,7.272,7.2808,7.3018,7.3025,7.3116,7.3146,7.3171,7.3193,7.3302,7.3341,7.2921,7.292,7.292,0,0,7.2188,7.2218,7.2287,7.24,7.2437,7.2545,7.2408,7.2529,7.2609,7.2507,7.2664,7.2681,7.2736,7.2924,7.3008,7.2947,7.331,7.3194,7.3213,7.3222,7.3324,7.3364,7.34,7.2933,7.2931,7.2929,0,0,7.246,7.2494,7.2641,7.268,7.2736,7.2729,7.2764,7.2805,7.2812,7.2968,7.2893,7.2986,7.3152,7.3193,7.3236,7.352,7.3458,7.355,7.3708,7.3815,7.3848,7.3877,7.3976,7.4012,7.3572,7.3573,7.3573,0,7.2601,7.2762,7.2724,7.285,7.29,7.2812,7.2959,7.2998,7.3081,7.3118,7.3048,7.325,7.3282,7.3477,7.3546,7.3584,7.3621,7.3544,7.3846,7.3875,7.3902,7.3995,7.4033,7.3583,7.3582,7.3581,7.358,0,7.2931,7.3044,7.3155,7.3236,7.3299,7.3436,7.3416,7.3485,7.3449,7.3449,7.3608,7.3642,7.3734,7.3778,7.3746,7.3968,7.3927,7.3853,7.3727,7.3953,7.404,7.4076,7.3599,7.3595,7.3592,7.3589,0,0,7.3306,7.3361,7.3402,7.3436,7.3491,7.3576,7.3707,7.3796,7.3854,7.3914,7.4021,7.4161,7.4091,7.414,7.411,7.4204,7.4423,7.4117,7.4118,7.4171,7.4666,7.4721,7.4764,7.4382,7.4389,7.4394,7.4661,0,7.3577,7.3804,7.3771,7.3989,7.409,7.4006,7.4119,7.4164,7.4166,7.4252,7.4254,7.4353,7.4255,7.4283,7.4372,7.4378,7.4522,7.4358,7.448,7.4484,7.4467,7.4809,7.4869,7.5119,7.4695,7.4701,7.4705,0,7.3925,7.3994,7.4222,7.4257,7.4298,7.4401,7.4478,7.4562,7.4609,7.4604,7.4657,7.4609,7.4737,7.461,7.4785,7.4674,7.4722,7.4732,7.4741,7.475,7.4608,7.4826,7.5198,7.5235,7.4759,7.4754,7.4751,0,7.4172,7.4323,7.4478,7.451,7.4555,7.4629,7.4651,7.4691,7.4745,7.4812,7.4847,7.4929,7.4973,7.5037,7.5011,7.4922,7.519,7.5062,7.5188,7.5189,7.5248,7.5244,7.5631,7.5282,7.5281,7.528,7.528,0,7.4478,7.462,7.4589,7.4685,7.484,7.48,7.4955,7.4966,7.5002,7.5097,7.5029,7.5119,7.5081,7.5168,7.5149,7.5295,7.5316,7.5314,7.5307,7.5319,7.5319,7.5349,7.533,7.529,7.5288,7.5286,7.5285,0,7.4781,7.4766,7.4929,7.4957,7.4967,7.5081,7.5104,7.5192,7.5187,7.5308,7.5334,7.5327,7.5425,7.5406,7.5516,7.5502,7.5684,7.5657,7.5669,7.5661,7.5788,7.5775,7.6206,7.6259,7.5877,7.5881,7.5884,0,7.4976,7.5083,7.5122,7.518,7.5207,7.5302,7.5356,7.5321,7.538,7.544,7.552,7.5612,7.5684,7.5844,7.5849,7.5931,7.5903,7.6048,7.5915,7.5923,7.5902,7.5896,7.5905,7.6075,7.6079,7.6083,7.6085,0,7.5324,7.5311,7.5392,7.547,7.5537,7.5597,7.565,7.5701,7.5669,7.5739,7.5838,7.5893,7.6003,7.6094,7.6169,7.619,7.6133,7.6127,7.616,7.6173,7.6174,7.6173,7.5739,7.6117,7.6114,7.6112,7.611,7.6109,7.5578,7.5667,7.5708,7.5799,7.5835,7.5886,7.5969,7.5974,7.6056,7.6142,7.6115,7.6227,7.6268,7.6363,7.6393,7.6478,7.6424,7.6473,7.6485,7.6497,7.6511,7.6162,7.6492,7.6491,7.649,7.649,7.6489,0,7.592,7.5941,7.6026,7.6101,7.6173,7.6111,7.6166,7.6229,7.6328,7.6372,7.6442,7.6554,7.6642,7.6652,7.6733,7.68,7.6775,7.6822,7.6816,7.6821,7.6556,7.6518,7.6841,7.6841,7.6841,7.6841,7.6841,7.684,7.6107,7.6254,7.6245,7.6408,7.6427,7.6536,7.6572,7.6617,7.6651,7.6779,7.685,7.6856,7.6885,7.6967,7.7043,7.7044,7.7076,7.7133,7.7124,7.6876,7.6841,7.6807,7.6771,7.7141,7.7142,7.7381,7.7383,7.7385]},{"header":{"parameterUnit":"m.s-1","parameterCategory":1,"la1":30.2991,"la2":30.254,"lo1":-89.0895,"lo2":-89.0444,"dy":0.0017,"dx":0.0017,"nx":28,"ny":28,"refTime":"2024-06-27T03:00:00:Z","depth":0,"parameterNumber":3,"parameterNumberName":"V-component_of_WINDS"},"data":[0,0,0,0,0,0,0,0,0,0,0,0,0,0,0,0,0,0,0,0,0,0,0,0,0,0,0,0,0,0,0,0,0,0,0,0,0,0,0,0,0,0,0,0,0,0,0,0,0,0,0,0,0,0,0,0,0,0,1.671,1.671,0,1.6678,1.6678,1.6678,1.6643,1.6642,1.6642,1.6641,1.661,1.6609,1.6609,0,0,0,0,0,0,0,0,0,0,0,0,0,1.674,1.6739,1.671,1.671,1.6709,1.6678,1.6678,1.6677,1.6643,1.6642,1.6642,1.6641,1.661,1.6609,1.6609,0,0,0,0,0,0,0,0,0,0,0,0,0,1.6719,1.6739,1.671,1.6688,1.6686,1.6678,1.6678,1.6677,1.6643,1.6642,1.6642,1.6641,1.661,1.661,1.6609,1.6621,0,0,1.6607,1.6607,0,0,0,0,0,0,0,0,1.672,1.6718,1.6692,1.669,1.6687,1.6664,1.6677,1.6658,1.6643,1.6659,1.6641,1.6641,1.6628,1.6626,1.6622,1.6619,1.6618,1.6607,1.6607,1.6607,1.6606,0,0,0,0,0,0,0,1.6722,1.6719,1.6697,1.6692,1.6689,1.668,1.6676,1.6673,1.6649,1.6658,1.6655,1.6652,1.6627,1.6623,1.6621,1.6617,1.6607,1.6607,1.6606,1.6606,1.662,1.662,0,0,0,0,0,0,1.6727,1.6721,1.6698,1.6696,1.6702,1.668,1.6676,1.6672,1.6648,1.6644,1.6653,1.6651,1.6624,1.6622,1.662,1.663,1.6607,1.6606,1.6606,1.6619,1.662,1.6621,0,0,0,0,0,0,1.6727,1.6725,1.67,1.6708,1.6704,1.668,1.6676,1.6672,1.6667,1.6645,1.664,1.6653,1.6623,1.6621,1.662,1.6629,1.6606,1.6605,1.6618,1.6619,1.662,1.6652,0,0,0,0,0,0,1.6728,1.6725,1.673,1.6708,1.6704,1.6701,1.6677,1.6672,1.6666,1.6663,1.6643,1.6639,1.6623,1.6621,1.6619,1.6628,1.6605,1.6617,1.6619,1.662,1.6651,1.6654,1.6658,0,0,0,0,0,1.673,1.6741,1.673,1.6728,1.6709,1.6702,1.6699,1.6679,1.6667,1.6671,1.6656,1.664,1.6628,1.6621,1.6619,1.6627,1.6617,1.6618,1.662,1.6649,1.6654,1.6658,0,0,0,0,0,0,1.6765,1.6738,1.6726,1.6731,1.6718,1.6696,1.67,1.6685,1.6676,1.6674,1.665,1.6645,1.6647,1.6637,1.663,1.6636,1.662,1.6621,1.6643,1.6647,1.6651,1.6653,1.6604,0,0,0,0,0,1.6773,1.677,1.6746,1.6753,1.6747,1.6725,1.6721,1.6706,1.6693,1.6688,1.6673,1.6661,1.6654,1.665,1.6643,1.6649,1.6643,1.6653,1.6657,1.666,1.6661,1.6662,1.6666,1.6626,1.6626,1.6626,0,0,1.6791,1.6775,1.6775,1.6759,1.6748,1.6744,1.6721,1.6718,1.6715,1.6688,1.6686,1.6674,1.6659,1.6661,1.6661,1.6653,1.6671,1.6662,1.6665,1.6664,1.6664,1.6668,1.6671,1.6627,1.6627,1.6627,0,0,1.682,1.6809,1.6812,1.6801,1.6784,1.6769,1.677,1.6748,1.6739,1.6737,1.6716,1.6711,1.6701,1.669,1.6683,1.6706,1.669,1.6704,1.6724,1.6725,1.6728,1.6731,1.6738,1.6741,1.6706,1.6706,1.6706,0,1.6844,1.6838,1.6816,1.6814,1.6807,1.6781,1.6783,1.6774,1.6756,1.6751,1.6742,1.6726,1.6714,1.6713,1.6718,1.6714,1.6713,1.6707,1.6729,1.6732,1.6734,1.674,1.6743,1.6708,1.6708,1.6707,1.6707,0,1.6867,1.6863,1.6867,1.6849,1.6843,1.6843,1.6821,1.6817,1.6802,1.6788,1.6785,1.6769,1.6757,1.6756,1.6742,1.6752,1.6747,1.6734,1.6717,1.674,1.6745,1.6748,1.671,1.671,1.6709,1.6709,0,0,1.6919,1.6887,1.6889,1.688,1.6859,1.6855,1.6853,1.6841,1.6838,1.6826,1.6823,1.6814,1.68,1.6793,1.6777,1.6778,1.6796,1.6765,1.6764,1.677,1.6804,1.6814,1.6817,1.6785,1.6786,1.6786,1.6805,0,1.6944,1.694,1.6919,1.692,1.6915,1.689,1.6888,1.6875,1.6861,1.6854,1.6838,1.6832,1.6815,1.681,1.681,1.6794,1.6802,1.6792,1.6782,1.6782,1.6786,1.682,1.6831,1.685,1.6807,1.6808,1.6808,0,1.6973,1.6961,1.6962,1.6939,1.6936,1.6935,1.6921,1.6916,1.6899,1.6889,1.6879,1.6861,1.6858,1.6842,1.6836,1.6829,1.6824,1.6815,1.6815,1.6813,1.6796,1.6818,1.6855,1.6858,1.6811,1.6811,1.6811,0,1.7009,1.6994,1.6992,1.6985,1.6959,1.6958,1.6947,1.693,1.6923,1.6911,1.6906,1.6894,1.6887,1.6878,1.6857,1.6847,1.6852,1.6835,1.6843,1.6844,1.6845,1.6845,1.6881,1.6843,1.6843,1.6843,1.6843,0,1.7039,1.704,1.7008,1.7007,1.7007,1.6982,1.6983,1.697,1.6954,1.6949,1.6927,1.6922,1.6895,1.6888,1.6872,1.6868,1.6866,1.6857,1.6852,1.6858,1.6859,1.6854,1.6852,1.6843,1.6843,1.6843,1.6843,0,1.708,1.7058,1.7054,1.7029,1.7022,1.7023,1.7001,1.6999,1.6983,1.6977,1.6974,1.6949,1.6939,1.6917,1.6901,1.689,1.689,1.6883,1.6896,1.6893,1.6901,1.6901,1.6935,1.6937,1.6898,1.6899,1.6899,0,1.71,1.71,1.7074,1.7069,1.7058,1.7051,1.7043,1.7019,1.7012,1.6992,1.6992,1.6979,1.6969,1.6953,1.6934,1.6921,1.6913,1.6925,1.6911,1.6916,1.6912,1.6912,1.6911,1.6929,1.6929,1.693,1.693,0,1.7137,1.7126,1.7116,1.7102,1.7094,1.7082,1.7069,1.7066,1.7038,1.7031,1.702,1.7011,1.6995,1.6982,1.6967,1.6955,1.6937,1.6935,1.6936,1.6942,1.6949,1.6944,1.6904,1.6934,1.6934,1.6933,1.6933,1.6933,1.7168,1.7166,1.7147,1.7136,1.7123,1.7111,1.7107,1.7089,1.708,1.7064,1.705,1.704,1.7021,1.6998,1.6987,1.6979,1.697,1.6972,1.6972,1.6973,1.6975,1.695,1.6976,1.6976,1.6975,1.6975,1.6975,0,1.7203,1.7189,1.7179,1.7161,1.7152,1.7136,1.712,1.7114,1.7105,1.7089,1.7078,1.7065,1.7053,1.7031,1.7017,1.7014,1.7006,1.7011,1.7011,1.7008,1.6984,1.6984,1.7018,1.7018,1.7018,1.7018,1.7018,1.7018,1.722,1.7216,1.7202,1.7191,1.7177,1.7166,1.7158,1.7146,1.7133,1.7119,1.7109,1.7094,1.7076,1.706,1.7048,1.7042,1.7037,1.7045,1.7036,1.7014,1.701,1.7006,1.7006,1.7044,1.7044,1.7061,1.7061,1.7061]}]]